Change the Weather History Date:

Wednesday, January 2, 2013

  Actual Average Record
Temperature  
Mean Temperature -28 °F -  
Max Temperature -23 °F -20 °F 1 °F (2003)
Min Temperature -34 °F -30 °F -43 °F (1998)
Degree Days  
Heating Degree Days 94    
Moisture  
Dew Point -35 °F    
Average Humidity 71    
Maximum Humidity 76    
Minimum Humidity 56    
Precipitation  
Precipitation 0.01 in - - ()
Sea Level Pressure  
Sea Level Pressure 30.01 in    
Wind  
Wind Speed 9 mph ()    
Max Wind Speed 12 mph    
Max Gust Speed -    
Visibility 7.9 miles    
Events Snow    
Averages and records for this station are not official NWS values.
T = Trace of Precipitation, MM = Missing Value Source: Averaged Metar Reports

Daily Weather History Graph

Daily Weather History Graph

Search for Another Location

Airport or City:

Trip Planner

Search our weather history database for the weather conditions in past years. The results will help you decide how hot, cold, wet, or windy it might be!

Date:

Astronomy

Jan. 02, 2013 Rise Set
Actual Time 11:46 AM CST 12:51 PM CST
Civil Twilight 9:53 AM CST 2:44 PM CST
Nautical Twilight 8:14 AM CST 4:23 PM CST
Astronomical Twilight 6:57 AM CST 5:39 PM CST
Moon 10:33 PM CST (1/2) 10:35 AM CST (1/2)
Length of Visible Light 4h 51m
Length of Day
1h 04m
Waning Gibbous, 75% of the Moon is Illuminated
Jan 2
Waning Gibbous
Jan 4
Last Quarter
Jan 11
New
Jan 18
First Quarter
Jan 26
Full

Hourly Weather History & Observations

Time (CST) Temp. Windchill Dew Point Humidity Pressure Visibility Wind Dir Wind Speed Gust Speed Precip Events Conditions
12:00 AM -28 °F - -34 °F 58% 30.03 in 15 mi SSE 9.2 mph - - Snow Snow
12:00 AM -27.4 °F -50.3 °F -34.6 °F 69% 30.03 in 15.0 mi SSE 10.4 mph - N/A   Partly Cloudy
1:00 AM -29.2 °F -52.5 °F -34.6 °F 75% 30.03 in 15.0 mi SSE 10.4 mph - N/A   Partly Cloudy
2:00 AM -29.2 °F -52.5 °F -36.4 °F 68% 30.04 in 15.0 mi SSE 10.4 mph - N/A   Partly Cloudy
3:00 AM -29.2 °F -52.5 °F -34.6 °F 75% 30.04 in 14.0 mi SSE 10.4 mph - N/A   Partly Cloudy
4:00 AM -29.2 °F -51.2 °F -34.6 °F 75% 30.04 in 15.0 mi SSE 9.2 mph - N/A   Clear
5:00 AM -29.2 °F -52.5 °F -36.4 °F 68% 30.04 in 14.0 mi SSE 10.4 mph - N/A   Clear
6:00 AM -31 °F - -37 °F 57% 30.04 in 9 mi SSE 10.4 mph - - Snow Snow
6:00 AM -31.0 °F -56.0 °F -36.4 °F 75% 30.04 in 9.0 mi SSE 11.5 mph - N/A   Partly Cloudy
7:00 AM -31.0 °F -54.7 °F -36.4 °F 75% 30.04 in 9.0 mi SSE 10.4 mph - N/A   Partly Cloudy
8:00 AM -31.0 °F -54.7 °F -36.4 °F 75% 30.04 in 9.0 mi SSE 10.4 mph - N/A Snow Light Snow
9:00 AM -31.0 °F -56.0 °F -36.4 °F 75% 30.04 in 12.0 mi SSE 11.5 mph - N/A Snow Light Snow
10:00 AM -29.2 °F -51.2 °F -36.4 °F 68% 30.04 in 12.0 mi SE 9.2 mph - N/A   Mostly Cloudy
11:00 AM -29.2 °F -52.5 °F -34.6 °F 75% 30.02 in 12.0 mi SSE 10.4 mph - N/A   Scattered Clouds
12:00 PM -31 °F - -37 °F 56% 30.02 in 12 mi SSE 10.4 mph - - Snow Snow
12:00 PM -31.0 °F -54.7 °F -36.4 °F 75% 30.02 in 12.0 mi SSE 10.4 mph - N/A   Partly Cloudy
1:00 PM -29.2 °F -51.2 °F -34.6 °F 75% 30.01 in 12.0 mi SSE 9.2 mph - N/A Snow Low Drifting Snow
2:00 PM -29.2 °F -49.7 °F -36.4 °F 68% 30.01 in 4.0 mi SSE 8.1 mph - N/A   Ice Crystals
3:00 PM -29.2 °F -51.2 °F -34.6 °F 75% 30.01 in 5.0 mi South 9.2 mph - N/A Snow Ice Crystals
3:22 PM - - - N/A% - 1.2 mi SE 6.9 mph - N/A   Ice Crystals
4:00 PM -23.8 °F -43.2 °F -29.2 °F 76% 30.02 in 1.5 mi SW 8.1 mph - N/A   Ice Crystals
4:28 PM - - - N/A% - 1.2 mi SW 8.1 mph - N/A   Ice Crystals
5:00 PM -27.4 °F -47.6 °F -32.8 °F 75% 30.00 in 1.2 mi SW 8.1 mph - N/A   Ice Crystals
6:00 PM -28 °F - -34 °F 58% 29.99 in 1 mi SSW 10.4 mph - - Snow Snow
6:00 PM -27.4 °F -51.4 °F -34.6 °F 69% 29.99 in 1.2 mi SSW 11.5 mph - N/A   Ice Crystals
7:00 PM -29.2 °F -52.5 °F -34.6 °F 75% 29.98 in 1.2 mi South 10.4 mph - N/A   Ice Crystals
8:00 PM -31.0 °F -56.0 °F -36.4 °F 75% 29.95 in 1.2 mi South 11.5 mph - N/A   Ice Crystals
9:00 PM -29.2 °F -51.2 °F -34.6 °F 75% 29.93 in 1.8 mi South 9.2 mph - N/A   Ice Crystals
9:27 PM - - - N/A% - 2.0 mi South 10.4 mph - N/A   Ice Crystals
10:00 PM -27.4 °F -50.3 °F -34.6 °F 69% 29.89 in 4.0 mi South 10.4 mph - N/A   Ice Crystals
11:00 PM -27.4 °F -51.4 °F -32.8 °F 75% 29.87 in 6.0 mi South 11.5 mph - N/A   Ice Crystals